owner,sensor,date,latitude,longitude,air_temperature,qcFlag 
LUMCON,ioos:station:LUMCON:105:1,2005-07-01T00:00:00Z,29.1874,-90.6654,30.1,11111222 
LUMCON,ioos:station:LUMCON:105:1,2005-07-01T01:00:00Z,29.1874,-90.6654,29.9,11111222 
LUMCON,ioos:station:LUMCON:105:1,2005-07-01T02:00:00Z,29.1874,-90.6654,29.7,11111222 
LUMCON,ioos:station:LUMCON:105:1,2005-07-01T03:00:00Z,29.1874,-90.6654,29.6,11111222 
LUMCON,ioos:station:LUMCON:105:1,2005-07-01T04:00:00Z,29.1874,-90.6654,29.6,11111222 
LUMCON,ioos:station:LUMCON:105:1,2005-07-01T05:00:00Z,29.1874,-90.6654,29.3,11111222 
LUMCON,ioos:station:LUMCON:105:1,2005-07-01T06:00:00Z,29.1874,-90.6654,29.3,11111222 
LUMCON,ioos:station:LUMCON:105:1,2005-07-01T07:00:00Z,29.1874,-90.6654,29.4,11111222 
LUMCON,ioos:station:LUMCON:105:1,2005-07-01T08:00:00Z,29.1874,-90.6654,29.1,11111222 
LUMCON,ioos:station:LUMCON:105:1,2005-07-01T09:00:00Z,29.1874,-90.6654,29.2,11111222 
LUMCON,ioos:station:LUMCON:105:1,2005-07-01T10:00:00Z,29.1874,-90.6654,29.1,11111222 
LUMCON,ioos:station:LUMCON:105:1,2005-07-01T11:00:00Z,29.1874,-90.6654,29.1,11111222 
LUMCON,ioos:station:LUMCON:105:1,2005-07-01T12:00:00Z,29.1874,-90.6654,29.2,11111222 
LUMCON,ioos:station:LUMCON:105:1,2005-07-01T13:00:00Z,29.1874,-90.6654,29.6,11111222 
LUMCON,ioos:station:LUMCON:105:1,2005-07-01T14:00:00Z,29.1874,-90.6654,27.5,11111222 
LUMCON,ioos:station:LUMCON:105:1,2005-07-01T15:00:00Z,29.1874,-90.6654,26.6,11111222 
LUMCON,ioos:station:LUMCON:105:1,2005-07-01T16:00:00Z,29.1874,-90.6654,27.2,11111222 
LUMCON,ioos:station:LUMCON:105:1,2005-07-01T17:00:00Z,29.1874,-90.6654,28.2,11111222 
LUMCON,ioos:station:LUMCON:105:1,2005-07-01T18:00:00Z,29.1874,-90.6654,29.4,11111222 
LUMCON,ioos:station:LUMCON:105:1,2005-07-01T19:00:00Z,29.1874,-90.6654,28.3,11111222 
LUMCON,ioos:station:LUMCON:105:1,2005-07-01T20:00:00Z,29.1874,-90.6654,29.7,11111222 
LUMCON,ioos:station:LUMCON:105:1,2005-07-01T21:00:00Z,29.1874,-90.6654,31.1,11111222 
LUMCON,ioos:station:LUMCON:105:1,2005-07-01T22:00:00Z,29.1874,-90.6654,30.9,11111222 
LUMCON,ioos:station:LUMCON:105:1,2005-07-01T23:00:00Z,29.1874,-90.6654,30.7,11111222 
LUMCON,ioos:station:LUMCON:105:1,2005-07-02T00:00:00Z,29.1874,-90.6654,30.7,11111222 
LUMCON,ioos:station:LUMCON:105:1,2005-07-02T01:00:00Z,29.1874,-90.6654,30.2,11111222 
LUMCON,ioos:station:LUMCON:105:1,2005-07-02T02:00:00Z,29.1874,-90.6654,29.8,11111222 
LUMCON,ioos:station:LUMCON:105:1,2005-07-02T03:00:00Z,29.1874,-90.6654,29.5,11111222 
LUMCON,ioos:station:LUMCON:105:1,2005-07-02T04:00:00Z,29.1874,-90.6654,29.4,11111222 
LUMCON,ioos:station:LUMCON:105:1,2005-07-02T05:00:00Z,29.1874,-90.6654,29.3,11111222 
LUMCON,ioos:station:LUMCON:105:1,2005-07-02T06:00:00Z,29.1874,-90.6654,29.3,11111222 
LUMCON,ioos:station:LUMCON:105:1,2005-07-02T07:00:00Z,29.1874,-90.6654,29.2,11111222 
LUMCON,ioos:station:LUMCON:105:1,2005-07-02T08:00:00Z,29.1874,-90.6654,29.2,11111222 
LUMCON,ioos:station:LUMCON:105:1,2005-07-02T09:00:00Z,29.1874,-90.6654,29.0,11111222 
LUMCON,ioos:station:LUMCON:105:1,2005-07-02T10:00:00Z,29.1874,-90.6654,28.9,11111222 
LUMCON,ioos:station:LUMCON:105:1,2005-07-02T11:00:00Z,29.1874,-90.6654,28.9,11111222 
LUMCON,ioos:station:LUMCON:105:1,2005-07-02T12:00:00Z,29.1874,-90.6654,29.0,11111222 
LUMCON,ioos:station:LUMCON:105:1,2005-07-02T13:00:00Z,29.1874,-90.6654,29.8,11111222 
LUMCON,ioos:station:LUMCON:105:1,2005-07-02T14:00:00Z,29.1874,-90.6654,29.8,11111222 
LUMCON,ioos:station:LUMCON:105:1,2005-07-02T15:00:00Z,29.1874,-90.6654,29.9,11111222 
LUMCON,ioos:station:LUMCON:105:1,2005-07-02T16:00:00Z,29.1874,-90.6654,26.8,11111222 
LUMCON,ioos:station:LUMCON:105:1,2005-07-02T17:00:00Z,29.1874,-90.6654,27.8,11111222 
LUMCON,ioos:station:LUMCON:105:1,2005-07-02T18:00:00Z,29.1874,-90.6654,28.0,11111222 
LUMCON,ioos:station:LUMCON:105:1,2005-07-02T19:00:00Z,29.1874,-90.6654,29.7,11111222 
LUMCON,ioos:station:LUMCON:105:1,2005-07-02T20:00:00Z,29.1874,-90.6654,30.2,11111222 
LUMCON,ioos:station:LUMCON:105:1,2005-07-02T21:00:00Z,29.1874,-90.6654,30.7,11111222 
LUMCON,ioos:station:LUMCON:105:1,2005-07-02T22:00:00Z,29.1874,-90.6654,31.2,11111222 
LUMCON,ioos:station:LUMCON:105:1,2005-07-02T23:00:00Z,29.1874,-90.6654,31.1,11111222 
LUMCON,ioos:station:LUMCON:105:1,2005-07-03T00:00:00Z,29.1874,-90.6654,30.9,11111222 
LUMCON,ioos:station:LUMCON:105:1,2005-07-03T01:00:00Z,29.1874,-90.6654,25.7,11111222 
LUMCON,ioos:station:LUMCON:105:1,2005-07-03T02:00:00Z,29.1874,-90.6654,26.1,11111222 
LUMCON,ioos:station:LUMCON:105:1,2005-07-03T03:00:00Z,29.1874,-90.6654,26.3,11111222 
LUMCON,ioos:station:LUMCON:105:1,2005-07-03T04:00:00Z,29.1874,-90.6654,27.0,11111222 
LUMCON,ioos:station:LUMCON:105:1,2005-07-03T05:00:00Z,29.1874,-90.6654,27.5,11111222 
LUMCON,ioos:station:LUMCON:105:1,2005-07-03T06:00:00Z,29.1874,-90.6654,28.2,11111222 
LUMCON,ioos:station:LUMCON:105:1,2005-07-03T07:00:00Z,29.1874,-90.6654,28.8,11111222 
LUMCON,ioos:station:LUMCON:105:1,2005-07-03T08:00:00Z,29.1874,-90.6654,28.8,11111222 
LUMCON,ioos:station:LUMCON:105:1,2005-07-03T09:00:00Z,29.1874,-90.6654,28.9,11111222 
LUMCON,ioos:station:LUMCON:105:1,2005-07-03T10:00:00Z,29.1874,-90.6654,29.0,11111222 
LUMCON,ioos:station:LUMCON:105:1,2005-07-03T11:00:00Z,29.1874,-90.6654,28.9,11111222 
LUMCON,ioos:station:LUMCON:105:1,2005-07-03T12:00:00Z,29.1874,-90.6654,29.1,11111222 
LUMCON,ioos:station:LUMCON:105:1,2005-07-03T13:00:00Z,29.1874,-90.6654,29.6,11111222 
LUMCON,ioos:station:LUMCON:105:1,2005-07-03T14:00:00Z,29.1874,-90.6654,30.1,11111222 
LUMCON,ioos:station:LUMCON:105:1,2005-07-03T15:00:00Z,29.1874,-90.6654,30.2,11111222 
LUMCON,ioos:station:LUMCON:105:1,2005-07-03T16:00:00Z,29.1874,-90.6654,30.8,11111222 
LUMCON,ioos:station:LUMCON:105:1,2005-07-03T17:00:00Z,29.1874,-90.6654,30.7,11111222 
LUMCON,ioos:station:LUMCON:105:1,2005-07-03T18:00:00Z,29.1874,-90.6654,30.9,11111222 
LUMCON,ioos:station:LUMCON:105:1,2005-07-03T19:00:00Z,29.1874,-90.6654,31.0,11111222 
LUMCON,ioos:station:LUMCON:105:1,2005-07-03T20:00:00Z,29.1874,-90.6654,30.6,11111222 
LUMCON,ioos:station:LUMCON:105:1,2005-07-03T21:00:00Z,29.1874,-90.6654,30.8,11111222 
LUMCON,ioos:station:LUMCON:105:1,2005-07-03T22:00:00Z,29.1874,-90.6654,30.6,11111222 
LUMCON,ioos:station:LUMCON:105:1,2005-07-03T23:00:00Z,29.1874,-90.6654,30.4,11111222 
LUMCON,ioos:station:LUMCON:105:1,2005-07-04T00:00:00Z,29.1874,-90.6654,30.6,11111222 
LUMCON,ioos:station:LUMCON:105:1,2005-07-04T01:00:00Z,29.1874,-90.6654,30.4,11111222 
LUMCON,ioos:station:LUMCON:105:1,2005-07-04T02:00:00Z,29.1874,-90.6654,29.2,11111222 
LUMCON,ioos:station:LUMCON:105:1,2005-07-04T03:00:00Z,29.1874,-90.6654,27.8,11111222 
LUMCON,ioos:station:LUMCON:105:1,2005-07-04T04:00:00Z,29.1874,-90.6654,28.3,11111222 
LUMCON,ioos:station:LUMCON:105:1,2005-07-04T05:00:00Z,29.1874,-90.6654,29.5,11111222 
LUMCON,ioos:station:LUMCON:105:1,2005-07-04T06:00:00Z,29.1874,-90.6654,29.7,11111222 
LUMCON,ioos:station:LUMCON:105:1,2005-07-04T07:00:00Z,29.1874,-90.6654,29.5,11111222 
LUMCON,ioos:station:LUMCON:105:1,2005-07-04T08:00:00Z,29.1874,-90.6654,29.5,11111222 
LUMCON,ioos:station:LUMCON:105:1,2005-07-04T09:00:00Z,29.1874,-90.6654,29.5,11111222 
LUMCON,ioos:station:LUMCON:105:1,2005-07-04T10:00:00Z,29.1874,-90.6654,29.5,11111222 
LUMCON,ioos:station:LUMCON:105:1,2005-07-04T11:00:00Z,29.1874,-90.6654,29.3,11111222 
LUMCON,ioos:station:LUMCON:105:1,2005-07-04T12:00:00Z,29.1874,-90.6654,29.4,11111222 
LUMCON,ioos:station:LUMCON:105:1,2005-07-04T13:00:00Z,29.1874,-90.6654,29.7,11111222 
LUMCON,ioos:station:LUMCON:105:1,2005-07-04T14:00:00Z,29.1874,-90.6654,29.7,11111222 
LUMCON,ioos:station:LUMCON:105:1,2005-07-04T15:00:00Z,29.1874,-90.6654,29.6,11111222 
LUMCON,ioos:station:LUMCON:105:1,2005-07-04T16:00:00Z,29.1874,-90.6654,29.7,11111222 
LUMCON,ioos:station:LUMCON:105:1,2005-07-04T17:00:00Z,29.1874,-90.6654,29.8,11111222 
LUMCON,ioos:station:LUMCON:105:1,2005-07-04T18:00:00Z,29.1874,-90.6654,29.8,11111222 
LUMCON,ioos:station:LUMCON:105:1,2005-07-04T19:00:00Z,29.1874,-90.6654,29.8,11111222 
LUMCON,ioos:station:LUMCON:105:1,2005-07-04T20:00:00Z,29.1874,-90.6654,30.0,11111222 
LUMCON,ioos:station:LUMCON:105:1,2005-07-04T21:00:00Z,29.1874,-90.6654,30.1,11111222 
LUMCON,ioos:station:LUMCON:105:1,2005-07-04T22:00:00Z,29.1874,-90.6654,30.1,11111222 
LUMCON,ioos:station:LUMCON:105:1,2005-07-04T23:00:00Z,29.1874,-90.6654,30.2,11111222 
LUMCON,ioos:station:LUMCON:105:1,2005-07-05T00:00:00Z,29.1874,-90.6654,30.3,11111222 
LUMCON,ioos:station:LUMCON:105:1,2005-07-05T01:00:00Z,29.1874,-90.6654,29.6,11111222 
LUMCON,ioos:station:LUMCON:105:1,2005-07-05T02:00:00Z,29.1874,-90.6654,29.3,11111222 
LUMCON,ioos:station:LUMCON:105:1,2005-07-05T03:00:00Z,29.1874,-90.6654,29.4,11111222 
LUMCON,ioos:station:LUMCON:105:1,2005-07-05T04:00:00Z,29.1874,-90.6654,29.5,11111222 
LUMCON,ioos:station:LUMCON:105:1,2005-07-05T05:00:00Z,29.1874,-90.6654,29.4,11111222 
LUMCON,ioos:station:LUMCON:105:1,2005-07-05T06:00:00Z,29.1874,-90.6654,29.4,11111222 
LUMCON,ioos:station:LUMCON:105:1,2005-07-05T07:00:00Z,29.1874,-90.6654,29.2,11111222 
LUMCON,ioos:station:LUMCON:105:1,2005-07-05T08:00:00Z,29.1874,-90.6654,29.1,11111222 
LUMCON,ioos:station:LUMCON:105:1,2005-07-05T09:00:00Z,29.1874,-90.6654,29.1,11111222 
LUMCON,ioos:station:LUMCON:105:1,2005-07-05T10:00:00Z,29.1874,-90.6654,29.1,11111222 
LUMCON,ioos:station:LUMCON:105:1,2005-07-05T11:00:00Z,29.1874,-90.6654,25.9,11111222 
LUMCON,ioos:station:LUMCON:105:1,2005-07-05T12:00:00Z,29.1874,-90.6654,25.1,11111222 
LUMCON,ioos:station:LUMCON:105:1,2005-07-05T13:00:00Z,29.1874,-90.6654,26.6,11111222 
LUMCON,ioos:station:LUMCON:105:1,2005-07-05T14:00:00Z,29.1874,-90.6654,27.2,11111222 
LUMCON,ioos:station:LUMCON:105:1,2005-07-05T15:00:00Z,29.1874,-90.6654,27.4,11111222 
LUMCON,ioos:station:LUMCON:105:1,2005-07-05T16:00:00Z,29.1874,-90.6654,26.6,11111222 
LUMCON,ioos:station:LUMCON:105:1,2005-07-05T17:00:00Z,29.1874,-90.6654,26.8,11111222 
LUMCON,ioos:station:LUMCON:105:1,2005-07-05T18:00:00Z,29.1874,-90.6654,26.7,11111222 
LUMCON,ioos:station:LUMCON:105:1,2005-07-05T19:00:00Z,29.1874,-90.6654,26.0,11111222 
LUMCON,ioos:station:LUMCON:105:1,2005-07-05T20:00:00Z,29.1874,-90.6654,26.4,11111222 
LUMCON,ioos:station:LUMCON:105:1,2005-07-05T21:00:00Z,29.1874,-90.6654,26.0,11111222 
LUMCON,ioos:station:LUMCON:105:1,2005-07-05T22:00:00Z,29.1874,-90.6654,25.5,11111222 
LUMCON,ioos:station:LUMCON:105:1,2005-07-05T23:00:00Z,29.1874,-90.6654,25.0,11111222 
LUMCON,ioos:station:LUMCON:105:1,2005-07-06T00:00:00Z,29.1874,-90.6654,25.2,11111222 
LUMCON,ioos:station:LUMCON:105:1,2005-07-06T01:00:00Z,29.1874,-90.6654,24.9,11111222 
LUMCON,ioos:station:LUMCON:105:1,2005-07-06T02:00:00Z,29.1874,-90.6654,24.3,11111222 
LUMCON,ioos:station:LUMCON:105:1,2005-07-06T03:00:00Z,29.1874,-90.6654,23.8,11111222 
LUMCON,ioos:station:LUMCON:105:1,2005-07-06T04:00:00Z,29.1874,-90.6654,24.1,11111222 
LUMCON,ioos:station:LUMCON:105:1,2005-07-06T05:00:00Z,29.1874,-90.6654,24.2,11111222 
LUMCON,ioos:station:LUMCON:105:1,2005-07-06T06:00:00Z,29.1874,-90.6654,23.9,11111222 
LUMCON,ioos:station:LUMCON:105:1,2005-07-06T07:00:00Z,29.1874,-90.6654,24.6,11111222 
LUMCON,ioos:station:LUMCON:105:1,2005-07-06T08:00:00Z,29.1874,-90.6654,24.0,11111222 
LUMCON,ioos:station:LUMCON:105:1,2005-07-06T09:00:00Z,29.1874,-90.6654,23.7,11111222 
LUMCON,ioos:station:LUMCON:105:1,2005-07-06T10:00:00Z,29.1874,-90.6654,23.8,11111222 
LUMCON,ioos:station:LUMCON:105:1,2005-07-06T11:00:00Z,29.1874,-90.6654,23.6,11111222 
LUMCON,ioos:station:LUMCON:105:1,2005-07-06T12:00:00Z,29.1874,-90.6654,23.4,11111222 
LUMCON,ioos:station:LUMCON:105:1,2005-07-06T13:00:00Z,29.1874,-90.6654,23.8,11111222 
LUMCON,ioos:station:LUMCON:105:1,2005-07-06T15:00:00Z,29.1874,-90.6654,24.8,11111222 
LUMCON,ioos:station:LUMCON:105:1,2005-07-06T16:00:00Z,29.1874,-90.6654,25.9,11111222 
LUMCON,ioos:station:LUMCON:105:1,2005-07-06T17:00:00Z,29.1874,-90.6654,26.7,11111222 
LUMCON,ioos:station:LUMCON:105:1,2005-07-06T18:00:00Z,29.1874,-90.6654,27.5,11111222 
LUMCON,ioos:station:LUMCON:105:1,2005-07-06T19:00:00Z,29.1874,-90.6654,28.9,11111222 
LUMCON,ioos:station:LUMCON:105:1,2005-07-06T20:00:00Z,29.1874,-90.6654,29.7,11111222 
LUMCON,ioos:station:LUMCON:105:1,2005-07-06T21:00:00Z,29.1874,-90.6654,30.1,11111222 
LUMCON,ioos:station:LUMCON:105:1,2005-07-06T22:00:00Z,29.1874,-90.6654,30.6,11111222 
LUMCON,ioos:station:LUMCON:105:1,2005-07-06T23:00:00Z,29.1874,-90.6654,30.0,11111222 
LUMCON,ioos:station:LUMCON:105:1,2005-07-07T00:00:00Z,29.1874,-90.6654,29.6,11111222 
LUMCON,ioos:station:LUMCON:105:1,2005-07-07T01:00:00Z,29.1874,-90.6654,29.0,11111222 
LUMCON,ioos:station:LUMCON:105:1,2005-07-07T02:00:00Z,29.1874,-90.6654,28.5,11111222 
LUMCON,ioos:station:LUMCON:105:1,2005-07-07T03:00:00Z,29.1874,-90.6654,28.2,11111222 
LUMCON,ioos:station:LUMCON:105:1,2005-07-07T04:00:00Z,29.1874,-90.6654,27.9,11111222 
LUMCON,ioos:station:LUMCON:105:1,2005-07-07T05:00:00Z,29.1874,-90.6654,27.7,11111222 
LUMCON,ioos:station:LUMCON:105:1,2005-07-07T06:00:00Z,29.1874,-90.6654,27.6,11111222 
LUMCON,ioos:station:LUMCON:105:1,2005-07-07T07:00:00Z,29.1874,-90.6654,27.5,11111222 
LUMCON,ioos:station:LUMCON:105:1,2005-07-07T08:00:00Z,29.1874,-90.6654,27.7,11111222 
LUMCON,ioos:station:LUMCON:105:1,2005-07-07T09:00:00Z,29.1874,-90.6654,27.6,11111222 
LUMCON,ioos:station:LUMCON:105:1,2005-07-07T10:00:00Z,29.1874,-90.6654,27.6,11111222 
LUMCON,ioos:station:LUMCON:105:1,2005-07-07T11:00:00Z,29.1874,-90.6654,27.4,11111222 
LUMCON,ioos:station:LUMCON:105:1,2005-07-07T12:00:00Z,29.1874,-90.6654,26.7,11111222 
LUMCON,ioos:station:LUMCON:105:1,2005-07-07T13:00:00Z,29.1874,-90.6654,25.3,11111222 
LUMCON,ioos:station:LUMCON:105:1,2005-07-07T14:00:00Z,29.1874,-90.6654,26.7,11111222 
LUMCON,ioos:station:LUMCON:105:1,2005-07-07T15:00:00Z,29.1874,-90.6654,28.0,11111222 
LUMCON,ioos:station:LUMCON:105:1,2005-07-07T16:00:00Z,29.1874,-90.6654,27.5,11111222 
LUMCON,ioos:station:LUMCON:105:1,2005-07-07T17:00:00Z,29.1874,-90.6654,28.5,11111222 
LUMCON,ioos:station:LUMCON:105:1,2005-07-07T18:00:00Z,29.1874,-90.6654,27.8,11111222 
LUMCON,ioos:station:LUMCON:105:1,2005-07-07T19:00:00Z,29.1874,-90.6654,28.5,11111222 
LUMCON,ioos:station:LUMCON:105:1,2005-07-07T20:00:00Z,29.1874,-90.6654,28.8,11111222 
LUMCON,ioos:station:LUMCON:105:1,2005-07-07T21:00:00Z,29.1874,-90.6654,29.1,11111222 
LUMCON,ioos:station:LUMCON:105:1,2005-07-07T22:00:00Z,29.1874,-90.6654,28.3,11111222 
LUMCON,ioos:station:LUMCON:105:1,2005-07-07T23:00:00Z,29.1874,-90.6654,29.7,11111222 
LUMCON,ioos:station:LUMCON:105:1,2005-07-08T00:00:00Z,29.1874,-90.6654,29.0,11111222 
LUMCON,ioos:station:LUMCON:105:1,2005-07-08T01:00:00Z,29.1874,-90.6654,28.9,11111222 
LUMCON,ioos:station:LUMCON:105:1,2005-07-08T02:00:00Z,29.1874,-90.6654,28.8,11111222 
LUMCON,ioos:station:LUMCON:105:1,2005-07-08T03:00:00Z,29.1874,-90.6654,28.6,11111222 
LUMCON,ioos:station:LUMCON:105:1,2005-07-08T04:00:00Z,29.1874,-90.6654,28.7,11111222 
LUMCON,ioos:station:LUMCON:105:1,2005-07-08T05:00:00Z,29.1874,-90.6654,28.7,11111222 
LUMCON,ioos:station:LUMCON:105:1,2005-07-08T06:00:00Z,29.1874,-90.6654,28.8,11111222 
LUMCON,ioos:station:LUMCON:105:1,2005-07-08T07:00:00Z,29.1874,-90.6654,28.8,11111222 
LUMCON,ioos:station:LUMCON:105:1,2005-07-08T08:00:00Z,29.1874,-90.6654,28.6,11111222 
LUMCON,ioos:station:LUMCON:105:1,2005-07-08T09:00:00Z,29.1874,-90.6654,28.5,11111222 
LUMCON,ioos:station:LUMCON:105:1,2005-07-08T10:00:00Z,29.1874,-90.6654,28.5,11111222 
LUMCON,ioos:station:LUMCON:105:1,2005-07-08T11:00:00Z,29.1874,-90.6654,28.4,11111222 
LUMCON,ioos:station:LUMCON:105:1,2005-07-08T12:00:00Z,29.1874,-90.6654,28.5,11111222 
LUMCON,ioos:station:LUMCON:105:1,2005-07-08T14:00:00Z,29.1874,-90.6654,28.9,11111222 
LUMCON,ioos:station:LUMCON:105:1,2005-07-08T15:00:00Z,29.1874,-90.6654,28.7,11111222 
LUMCON,ioos:station:LUMCON:105:1,2005-07-08T16:00:00Z,29.1874,-90.6654,29.0,11111222 
LUMCON,ioos:station:LUMCON:105:1,2005-07-11T19:00:00Z,29.1874,-90.6654,29.6,11111222 
LUMCON,ioos:station:LUMCON:105:1,2005-07-11T20:00:00Z,29.1874,-90.6654,29.6,11111222 
LUMCON,ioos:station:LUMCON:105:1,2005-07-11T21:00:00Z,29.1874,-90.6654,29.8,11111222 
LUMCON,ioos:station:LUMCON:105:1,2005-07-11T22:00:00Z,29.1874,-90.6654,29.8,11111222 
LUMCON,ioos:station:LUMCON:105:1,2005-07-11T23:00:00Z,29.1874,-90.6654,29.7,11111222 
LUMCON,ioos:station:LUMCON:105:1,2005-07-12T00:00:00Z,29.1874,-90.6654,29.8,11111222 
LUMCON,ioos:station:LUMCON:105:1,2005-07-12T01:00:00Z,29.1874,-90.6654,29.5,11111222 
LUMCON,ioos:station:LUMCON:105:1,2005-07-12T02:00:00Z,29.1874,-90.6654,29.3,11111222 
LUMCON,ioos:station:LUMCON:105:1,2005-07-12T03:00:00Z,29.1874,-90.6654,29.3,11111222 
LUMCON,ioos:station:LUMCON:105:1,2005-07-12T04:00:00Z,29.1874,-90.6654,29.2,11111222 
LUMCON,ioos:station:LUMCON:105:1,2005-07-12T05:00:00Z,29.1874,-90.6654,29.2,11111222 
LUMCON,ioos:station:LUMCON:105:1,2005-07-12T06:00:00Z,29.1874,-90.6654,29.3,11111222 
LUMCON,ioos:station:LUMCON:105:1,2005-07-12T07:00:00Z,29.1874,-90.6654,29.1,11111222 
LUMCON,ioos:station:LUMCON:105:1,2005-07-12T08:00:00Z,29.1874,-90.6654,29.1,11111222 
LUMCON,ioos:station:LUMCON:105:1,2005-07-12T09:00:00Z,29.1874,-90.6654,29.0,11111222 
LUMCON,ioos:station:LUMCON:105:1,2005-07-12T10:00:00Z,29.1874,-90.6654,29.0,11111222 
LUMCON,ioos:station:LUMCON:105:1,2005-07-12T11:00:00Z,29.1874,-90.6654,29.0,11111222 
LUMCON,ioos:station:LUMCON:105:1,2005-07-12T12:00:00Z,29.1874,-90.6654,29.1,11111222 
LUMCON,ioos:station:LUMCON:105:1,2005-07-12T13:00:00Z,29.1874,-90.6654,29.2,11111222 
LUMCON,ioos:station:LUMCON:105:1,2005-07-12T14:00:00Z,29.1874,-90.6654,29.3,11111222 
LUMCON,ioos:station:LUMCON:105:1,2005-07-12T15:00:00Z,29.1874,-90.6654,29.4,11111222 
LUMCON,ioos:station:LUMCON:105:1,2005-07-12T16:00:00Z,29.1874,-90.6654,29.5,11111222 
LUMCON,ioos:station:LUMCON:105:1,2005-07-12T17:00:00Z,29.1874,-90.6654,29.6,11111222 
LUMCON,ioos:station:LUMCON:105:1,2005-07-12T18:00:00Z,29.1874,-90.6654,29.6,11111222 
LUMCON,ioos:station:LUMCON:105:1,2005-07-12T19:00:00Z,29.1874,-90.6654,29.7,11111222 
LUMCON,ioos:station:LUMCON:105:1,2005-07-12T20:00:00Z,29.1874,-90.6654,29.9,11111222 
LUMCON,ioos:station:LUMCON:105:1,2005-07-12T21:00:00Z,29.1874,-90.6654,30.0,11111222 
LUMCON,ioos:station:LUMCON:105:1,2005-07-12T22:00:00Z,29.1874,-90.6654,30.1,11111222 
LUMCON,ioos:station:LUMCON:105:1,2005-07-12T23:00:00Z,29.1874,-90.6654,30.2,11111222 
LUMCON,ioos:station:LUMCON:105:1,2005-07-13T00:00:00Z,29.1874,-90.6654,30.1,11111222 
LUMCON,ioos:station:LUMCON:105:1,2005-07-13T01:00:00Z,29.1874,-90.6654,29.9,11111222 
LUMCON,ioos:station:LUMCON:105:1,2005-07-13T02:00:00Z,29.1874,-90.6654,29.8,11111222 
LUMCON,ioos:station:LUMCON:105:1,2005-07-13T03:00:00Z,29.1874,-90.6654,29.8,11111222 
LUMCON,ioos:station:LUMCON:105:1,2005-07-13T04:00:00Z,29.1874,-90.6654,29.7,11111222 
LUMCON,ioos:station:LUMCON:105:1,2005-07-13T05:00:00Z,29.1874,-90.6654,29.6,11111222 
LUMCON,ioos:station:LUMCON:105:1,2005-07-13T06:00:00Z,29.1874,-90.6654,29.5,11111222 
LUMCON,ioos:station:LUMCON:105:1,2005-07-13T07:00:00Z,29.1874,-90.6654,29.3,11111222 
LUMCON,ioos:station:LUMCON:105:1,2005-07-13T08:00:00Z,29.1874,-90.6654,29.2,11111222 
LUMCON,ioos:station:LUMCON:105:1,2005-07-13T09:00:00Z,29.1874,-90.6654,29.0,11111222 
LUMCON,ioos:station:LUMCON:105:1,2005-07-13T10:00:00Z,29.1874,-90.6654,29.0,11111222 
LUMCON,ioos:station:LUMCON:105:1,2005-07-13T11:00:00Z,29.1874,-90.6654,29.0,11111222 
LUMCON,ioos:station:LUMCON:105:1,2005-07-13T12:00:00Z,29.1874,-90.6654,29.0,11111222 
LUMCON,ioos:station:LUMCON:105:1,2005-07-13T13:00:00Z,29.1874,-90.6654,29.5,11111222 
LUMCON,ioos:station:LUMCON:105:1,2005-07-13T14:00:00Z,29.1874,-90.6654,29.6,11111222 
LUMCON,ioos:station:LUMCON:105:1,2005-07-13T15:00:00Z,29.1874,-90.6654,29.7,11111222 
LUMCON,ioos:station:LUMCON:105:1,2005-07-13T16:00:00Z,29.1874,-90.6654,29.7,11111222 
LUMCON,ioos:station:LUMCON:105:1,2005-07-13T17:00:00Z,29.1874,-90.6654,30.0,11111222 
LUMCON,ioos:station:LUMCON:105:1,2005-07-13T18:00:00Z,29.1874,-90.6654,30.3,11111222 
LUMCON,ioos:station:LUMCON:105:1,2005-07-13T19:00:00Z,29.1874,-90.6654,30.3,11111222 
LUMCON,ioos:station:LUMCON:105:1,2005-07-13T20:00:00Z,29.1874,-90.6654,27.0,11111222 
LUMCON,ioos:station:LUMCON:105:1,2005-07-13T21:00:00Z,29.1874,-90.6654,28.2,11111222 
LUMCON,ioos:station:LUMCON:105:1,2005-07-13T22:00:00Z,29.1874,-90.6654,29.2,11111222 
LUMCON,ioos:station:LUMCON:105:1,2005-07-13T23:00:00Z,29.1874,-90.6654,30.7,11111222 
LUMCON,ioos:station:LUMCON:105:1,2005-07-14T00:00:00Z,29.1874,-90.6654,29.8,11111222 
LUMCON,ioos:station:LUMCON:105:1,2005-07-14T01:00:00Z,29.1874,-90.6654,30.2,11111222 
LUMCON,ioos:station:LUMCON:105:1,2005-07-14T02:00:00Z,29.1874,-90.6654,30.2,11111222 
LUMCON,ioos:station:LUMCON:105:1,2005-07-14T03:00:00Z,29.1874,-90.6654,30.1,11111222 
LUMCON,ioos:station:LUMCON:105:1,2005-07-14T04:00:00Z,29.1874,-90.6654,29.9,11111222 
LUMCON,ioos:station:LUMCON:105:1,2005-07-14T05:00:00Z,29.1874,-90.6654,29.8,11111222 
LUMCON,ioos:station:LUMCON:105:1,2005-07-14T06:00:00Z,29.1874,-90.6654,29.8,11111222 
LUMCON,ioos:station:LUMCON:105:1,2005-07-14T07:00:00Z,29.1874,-90.6654,29.9,11111222 
LUMCON,ioos:station:LUMCON:105:1,2005-07-14T08:00:00Z,29.1874,-90.6654,29.5,11111222 
LUMCON,ioos:station:LUMCON:105:1,2005-07-14T09:00:00Z,29.1874,-90.6654,28.9,11111222 
LUMCON,ioos:station:LUMCON:105:1,2005-07-14T10:00:00Z,29.1874,-90.6654,28.9,11111222 
LUMCON,ioos:station:LUMCON:105:1,2005-07-14T11:00:00Z,29.1874,-90.6654,29.1,11111222 
LUMCON,ioos:station:LUMCON:105:1,2005-07-14T12:00:00Z,29.1874,-90.6654,29.4,11111222 
LUMCON,ioos:station:LUMCON:105:1,2005-07-14T13:00:00Z,29.1874,-90.6654,27.8,11111222 
LUMCON,ioos:station:LUMCON:105:1,2005-07-14T14:00:00Z,29.1874,-90.6654,27.0,11111222 
LUMCON,ioos:station:LUMCON:105:1,2005-07-14T15:00:00Z,29.1874,-90.6654,26.4,11111222 
LUMCON,ioos:station:LUMCON:105:1,2005-07-14T16:00:00Z,29.1874,-90.6654,26.5,11111222 
LUMCON,ioos:station:LUMCON:105:1,2005-07-14T17:00:00Z,29.1874,-90.6654,26.3,11111222 
LUMCON,ioos:station:LUMCON:105:1,2005-07-14T18:00:00Z,29.1874,-90.6654,27.6,11111222 
LUMCON,ioos:station:LUMCON:105:1,2005-07-14T19:00:00Z,29.1874,-90.6654,28.6,11111222 
LUMCON,ioos:station:LUMCON:105:1,2005-07-14T20:00:00Z,29.1874,-90.6654,29.2,11111222 
LUMCON,ioos:station:LUMCON:105:1,2005-07-14T21:00:00Z,29.1874,-90.6654,29.7,11111222 
LUMCON,ioos:station:LUMCON:105:1,2005-07-14T22:00:00Z,29.1874,-90.6654,28.4,11111222 
LUMCON,ioos:station:LUMCON:105:1,2005-07-14T23:00:00Z,29.1874,-90.6654,27.3,11111222 
LUMCON,ioos:station:LUMCON:105:1,2005-07-15T00:00:00Z,29.1874,-90.6654,28.3,11111222 
LUMCON,ioos:station:LUMCON:105:1,2005-07-15T01:00:00Z,29.1874,-90.6654,28.9,11111222 
LUMCON,ioos:station:LUMCON:105:1,2005-07-15T02:00:00Z,29.1874,-90.6654,29.1,11111222 
LUMCON,ioos:station:LUMCON:105:1,2005-07-15T03:00:00Z,29.1874,-90.6654,29.2,11111222 
LUMCON,ioos:station:LUMCON:105:1,2005-07-15T04:00:00Z,29.1874,-90.6654,29.3,11111222 
LUMCON,ioos:station:LUMCON:105:1,2005-07-15T05:00:00Z,29.1874,-90.6654,29.2,11111222 
LUMCON,ioos:station:LUMCON:105:1,2005-07-15T06:00:00Z,29.1874,-90.6654,29.1,11111222 
LUMCON,ioos:station:LUMCON:105:1,2005-07-15T07:00:00Z,29.1874,-90.6654,29.0,11111222 
LUMCON,ioos:station:LUMCON:105:1,2005-07-15T08:00:00Z,29.1874,-90.6654,29.0,11111222 
LUMCON,ioos:station:LUMCON:105:1,2005-07-15T09:00:00Z,29.1874,-90.6654,29.1,11111222 
LUMCON,ioos:station:LUMCON:105:1,2005-07-15T10:00:00Z,29.1874,-90.6654,29.1,11111222 
LUMCON,ioos:station:LUMCON:105:1,2005-07-15T11:00:00Z,29.1874,-90.6654,29.0,11111222 
LUMCON,ioos:station:LUMCON:105:1,2005-07-15T12:00:00Z,29.1874,-90.6654,29.0,11111222 
LUMCON,ioos:station:LUMCON:105:1,2005-07-15T13:00:00Z,29.1874,-90.6654,29.2,11111222 
LUMCON,ioos:station:LUMCON:105:1,2005-07-15T14:00:00Z,29.1874,-90.6654,29.3,11111222 
LUMCON,ioos:station:LUMCON:105:1,2005-07-15T15:00:00Z,29.1874,-90.6654,29.4,11111222 
LUMCON,ioos:station:LUMCON:105:1,2005-07-15T16:00:00Z,29.1874,-90.6654,29.3,11111222 
LUMCON,ioos:station:LUMCON:105:1,2005-07-15T17:00:00Z,29.1874,-90.6654,28.7,11111222 